Showing default

O3B FM11, 40349

Orbit data source: Space-Track

O3B FM11, 40349 is a payload satellite owned by O3B (JE) that was launched on Thu, 18 Dec 2014 UTC via a SOYUZ-ST-B launch vehicle from the French Guiana (FRGUI). Payload-class satellites include a variety of spacecraft equipped with specific instruments for various scientific and technological missions. These include communications satellites like Starlink; space stations such as the ISS; scientific satellites like the Hubble; Earth observation satellites from companies like Planet Labs, Umbra, and HawkEye 360; GPS; miniature CubeSats for education and research; and military/defense satellites.

Loading next visibility...
Identifier
40349, 2014-083B
Orbit
Active
Country
Flag of UnknownUnknown / O3B
Related business
Manufacturer
Thales Alenia
Mission
Operational Commercial Communications
Bus & Motor
PRISMA?, LS-400 AOCS?
Mass
700 kg wet, ~500 kg dry
Launch date (UTC)
2014-12-18 (11 years ago)
Launch vehicle
SOYUZ-ST-B
Launch site
French Guiana (FRGUI)
Object type
Payload
Rocket body
Debris
Shape & HBR
Trap Box + 2 Pan, 6.0 m
Radar Cross Section
21.980 m², Large (>1 m²)

Expand to show TLE details & history
Last TLE update: 15 hours ago

TLE from 15 hours ago
0 O3B FM11
1 40349U 14083B   26034.24533832 -.00000026  00000-0  00000+0 0  9999
2 40349   0.0544   1.8861 0003268 303.4822  54.5935  5.00115579203212
Epoch: 2026-02-03T05:53Z
TLE epoch observation values (Epoch: 2026-02-03T05:53:17.230Z)
Latitude
-0.00668°
Longitude
138.24908°
Altitude
8,061.634 km
Speed
5.255 km/s
True Right ascension
23h 59m 59s
True Declination
0° 00' 24"
Sunlit
Object was in daylight at epoch
Visualization orbit readout
Latitude
Unknown
Longitude
Unknown
Altitude
Unknown
Speed
Unknown
Apparent Right ascension
Unknown
Apparent Declination
Unknown
Sunlit
N/A
Visualization observer readout
Local Sidereal Time
22:36:27
Azimuth
Unknown
Elevation
Unknown
Doppler factor
Unknown
Orbital elements
Apogee altitude
8,073.668 km
Perigee altitude
8,064.226 km
Semi-major axis
14,447.084 km
Eccentricity
0.00033
Inclination
0.0544°
RAAN
1.8861°
Arg. of periapsis
303.4822°
True anomaly
54.62403°
Mean anomaly
54.5935°
Eccentric anomaly
54.60876°
Mean motion
1.24989 °/min
Orbital period
288.02 mins
BSTAR
0
Loading maneuver chart data...
Computing Atmospheric mass density...
Loading historical data...
Loading historical data...
Loading historical data...
Loading historical data...
Loading historical data...
Loading historical data...
Loading historical data...
Other satellites on launch #83 in the year 2014 (2014-12-18 UTC)

Documentation

Showing up to 5 results
|